DW1389 Weather Reports


Display with metric or nautical units.
time (UTC)temp
F
wind
direction
speed
MPH
gust
MPH
rain 1hr
in
rain 24hr
in
rain mn
in
humidity
%
barometer
mb
20260508012707 62 39 2.0 3.0 0.00 0.01 0.01 79 1013.3
20260508012206 62 47 2.0 4.0 0.00 0.01 0.01 79 1013.5
20260508011707 63 42 3.0 4.0 0.00 0.01 0.01 78 1013.6
20260508011202 63 47 2.0 4.0 0.00 0.01 0.01 77 1013.6
20260508010932 63 46 2.0 4.0 0.00 0.01 0.01 75 1013.8
20260508010433 63 46 2.0 4.0 0.00 0.01 0.01 75 1014.4
20260508005702 63 45 2.0 4.0 0.00 0.01 0.01 75 1014.2
20260508005202 63 46 2.0 4.0 0.00 0.01 0.01 75 1013.9
20260508004701 64 44 2.0 4.0 0.00 0.01 0.01 75 1013.8
20260508004440 64 45 2.0 4.0 0.00 0.01 0.01 74 1014.0
20260508004203 64 46 2.0 4.0 0.00 0.01 0.01 73 1013.9
20260508003202 64 46 2.0 4.0 0.00 0.01 0.01 74 1014.0
20260508002702 64 46 2.0 4.0 0.00 0.01 0.01 73 1014.1
20260508002201 64 46 2.0 4.0 0.00 0.01 0.01 72 1014.5
20260508001701 65 45 2.0 4.0 0.00 0.01 0.01 71 1014.6
20260508001202 65 46 2.0 4.0 0.00 0.01 0.01 71 1014.7
20260508000701 65 45 3.0 9.0 0.00 0.01 0.01 70 1014.8
20260508000521 65 27 4.0 10.0 0.00 0.01 0.01 70 1015.2
20260508000516 65 46 4.0 10.0 0.00 0.01 0.01 70 1015.2
20260507235201 65 28 4.0 10.0 0.00 0.01 0.01 69 1015.0
20260507234700 65 24 4.0 10.0 0.00 0.01 0.01 69 1014.9
20260507234201 65 36 4.0 12.0 0.00 0.01 0.01 70 1014.6
20260507233701 65 28 4.0 12.0 0.00 0.01 0.01 69 1014.9
20260507233201 65 32 4.0 10.0 0.00 0.01 0.01 69 1014.9
20260507232701 65 28 6.0 10.0 0.00 0.01 0.01 70 1014.5
20260507232201 65 26 7.0 11.0 0.00 0.01 0.01 70 1014.4
20260507231701 66 38 5.0 11.0 0.00 0.01 0.01 69 1014.5
20260507231201 66 46 3.0 9.0 0.00 0.01 0.01 68 1014.8
20260507230945 66 167 4.0 10.0 0.00 0.01 0.01 67 1015.0
20260507230450 66 223 4.0 10.0 0.00 0.01 0.01 68 1014.8
20260507225948 66 38 4.0 9.0 0.00 0.01 0.01 68 1014.7
20260507225201 66 19 4.0 10.0 0.00 0.01 0.01 68 1014.6
20260507224701 66 204 5.0 10.0 0.00 0.01 0.01 69 1014.6
20260507224201 66 48 5.0 10.0 0.00 0.01 0.01 68 1014.8
20260507223702 66 35 4.0 9.0 0.00 0.01 0.01 68 1015.0
20260507223202 66 41 4.0 11.0 0.00 0.01 0.01 67 1015.0
20260507222926 66 13 4.0 11.0 0.00 0.01 0.01 67 1015.0
20260507222202 67 66 4.0 12.0 0.00 0.01 0.01 67 1015.4
20260507221702 66 31 4.0 12.0 0.00 0.01 0.01 67 1015.5
20260507221149 66 59 4.0 11.0 0.00 0.01 0.01 67 1015.5
20260507220649 66 48 3.0 11.0 0.00 0.01 0.01 67 1015.2
20260507220149 66 49 3.0 11.0 0.00 0.01 0.01 67 1015.2
20260507215649 66 30 3.0 11.0 0.00 0.01 0.01 67 1015.5
20260507215152 66 44 4.0 12.0 0.00 0.01 0.01 67 1015.7
20260507214650 66 41 4.0 12.0 0.00 0.01 0.01 67 1015.7
20260507214147 66 25 3.0 10.0 0.00 0.01 0.01 67 1015.5
20260507213648 66 338 4.0 13.0 0.00 0.01 0.01 70 1015.7
20260507213148 65 27 5.0 13.0 0.00 0.01 0.01 71 1015.7
20260507212647 65 135 4.0 10.0 0.00 0.01 0.01 71 1015.7
20260507212146 65 46 4.0 10.0 0.01 0.01 0.01 71 1015.0
20260507211647 65 45 4.0 10.0 0.01 0.01 0.01 71 1014.9
20260507211429 65 40 4.0 12.0 0.01 0.01 0.01 70 1015.3
20260507210647 65 354 5.0 12.0 0.01 0.01 0.01 71 1015.4
20260507210146 65 27 4.0 11.0 0.01 0.01 0.01 71 1015.6
20260507205720 65 225 3.0 5.0 0.01 0.01 0.01 70 1016.1
20260507205711 65 47 3.0 9.0 0.01 0.01 0.01 71 1015.8
20260507204645 65 48 3.0 5.0 0.01 0.01 0.01 71 1016.1
20260507204427 65 49 2.0 5.0 0.01 0.01 0.01 71 1016.1
20260507203644 65 236 3.0 13.0 0.01 0.01 0.01 70 1016.2
20260507203141 65 325 5.0 13.0 0.01 0.01 0.01 70 1016.2
20260507202643 65 7 5.0 10.0 0.01 0.01 0.01 71 1016.2
20260507202142 64 18 5.0 11.0 0.00 0.00 0.00 72 1016.4
20260507201642 64 33 5.0 11.0 0.00 0.00 0.00 72 1016.1
20260507201143 64 34 5.0 11.0 0.00 0.00 0.00 72 1016.4
20260507200643 64 33 5.0 14.0 0.00 0.00 0.00 72 1016.2
20260507200143 64 30 5.0 14.0 0.00 0.00 0.00 73 1016.0
20260507195643 64 23 5.0 10.0 0.00 0.00 0.00 72 1016.4
20260507195424 64 35 4.0 9.0 0.00 0.00 0.00 72 1016.7
20260507194643 63 19 3.0 8.0 0.00 0.00 0.00 72 1016.7
20260507194143 63 48 5.0 9.0 0.00 0.00 0.00 73 1016.5
20260507193643 63 41 5.0 10.0 0.00 0.00 0.00 74 1016.5
20260507193142 63 42 6.0 21.0 0.00 0.00 0.00 74 1016.6
20260507192642 62 27 8.0 21.0 0.00 0.00 0.00 75 1016.9
20260507192144 62 25 8.0 18.0 0.00 0.00 0.00 74 1016.8
20260507191639 62 35 7.0 18.0 0.00 0.00 0.00 74 1016.8
20260507191423 62 46 7.0 16.0 0.00 0.00 0.00 75 1017.1
20260507190639 62 34 7.0 16.0 0.00 0.00 0.00 75 1017.1
20260507190137 62 16 6.0 16.0 0.00 0.00 0.00 75 1016.6
20260507185635 62 36 6.0 17.0 0.00 0.00 0.00 75 1016.7
20260507185413 63 45 7.0 17.0 0.00 0.00 0.00 75 1016.8
20260507184631 63 18 8.0 21.0 0.00 0.00 0.00 74 1016.9
20260507184131 62 34 9.0 21.0 0.00 0.00 0.00 75 1017.0
20260507183631 62 39 8.0 18.0 0.00 0.00 0.00 75 1016.9
20260507183132 62 27 7.0 18.0 0.00 0.00 0.00 75 1016.9
20260507182631 62 39 8.0 18.0 0.00 0.00 0.00 75 1016.7
20260507182131 62 5 7.0 16.0 0.00 0.00 0.00 74 1017.0
20260507181632 62 0 7.0 16.0 0.00 0.00 0.00 74 1017.1
20260507181131 62 18 4.0 14.0 0.00 0.00 0.00 74 1017.1
20260507180629 62 237 3.0 13.0 0.00 0.00 0.00 75 1017.4
20260507180129 62 207 3.0 13.0 0.00 0.00 0.00 75 1017.3
20260507175628 62 220 2.0 12.0 0.00 0.00 0.00 76 1017.0
20260507175129 62 227 2.0 12.0 0.00 0.00 0.00 75 1016.7
20260507174630 62 213 3.0 10.0 0.00 0.00 0.00 76 1017.0
20260507174128 62 221 2.0 10.0 0.00 0.00 0.00 77 1017.4
20260507173905 61 228 2.0 5.0 0.00 0.00 0.00 77 1017.1
20260507173129 61 215 3.0 14.0 0.00 0.00 0.00 79 1017.4
20260507172914 61 213 3.0 14.0 0.00 0.00 0.00 79 1017.2
20260507172129 60 195 3.0 18.0 0.00 0.00 0.00 79 1017.3
20260507171629 60 213 3.0 18.0 0.00 0.00 0.00 80 1016.9
20260507171129 60 191 2.0 10.0 0.00 0.00 0.00 80 1017.0
20260507170629 60 219 2.0 10.0 0.00 0.00 0.00 80 1017.0
20260507170130 60 214 2.0 3.0 0.00 0.00 0.00 80 1017.4
20260507165857 60 205 2.0 4.0 0.00 0.00 0.00 80 1017.3
20260507165130 60 206 2.0 6.0 0.00 0.00 0.00 80 1017.2
20260507164629 60 69 2.0 9.0 0.00 0.00 0.00 80 1017.4
20260507164128 60 66 2.0 9.0 0.00 0.00 0.00 81 1017.5
20260507163629 60 203 2.0 8.0 0.00 0.00 0.00 80 1018.0
20260507163129 60 53 3.0 8.0 0.00 0.00 0.00 81 1018.4
20260507162629 59 288 3.0 6.0 0.00 0.00 0.00 80 1018.9
20260507162129 59 180 2.0 6.0 0.00 0.00 0.00 81 1019.1
20260507161628 59 232 3.0 8.0 0.00 0.00 0.00 81 1018.8
20260507161412 59 17 3.0 8.0 0.00 0.00 0.00 81 1017.8
20260507160630 59 251 3.0 6.0 0.00 0.00 0.00 81 1018.5
20260507160129 59 13 3.0 6.0 0.00 0.00 0.00 80 1018.4
20260507155630 59 39 2.0 4.0 0.00 0.00 0.00 81 1018.4
20260507155354 59 26 2.0 7.0 0.00 0.00 0.00 82 1018.5
20260507154627 59 271 3.0 7.0 0.00 0.00 0.00 82 1018.2
20260507154127 59 26 4.0 9.0 0.00 0.00 0.00 82 1018.2
20260507153627 58 248 4.0 9.0 0.00 0.01 0.00 83 1018.0
20260507153127 59 10 2.0 8.0 0.00 0.01 0.00 83 1018.0
20260507152621 59 338 3.0 8.0 0.00 0.01 0.00 84 1018.5
20260507152121 58 210 3.0 7.0 0.00 0.01 0.00 84 1018.2
20260507151622 58 187 2.0 6.0 0.00 0.01 0.00 84 1018.2
20260507151121 58 48 3.0 8.0 0.00 0.01 0.00 84 1018.6
20260507150622 58 21 3.0 8.0 0.00 0.01 0.00 85 1018.2
20260507150124 58 28 3.0 8.0 0.00 0.01 0.00 85 1018.2
20260507145622 58 351 3.0 10.0 0.00 0.01 0.00 85 1018.3
20260507145122 58 223 3.0 10.0 0.00 0.01 0.00 86 1018.3
20260507144622 58 63 3.0 6.0 0.00 0.01 0.00 86 1018.1
20260507144122 58 35 4.0 9.0 0.00 0.01 0.00 86 1017.8
20260507143901 58 55 4.0 9.0 0.00 0.01 0.00 86 1017.8
20260507143122 58 46 4.0 8.0 0.00 0.01 0.00 86 1017.7
20260507142622 58 33 4.0 9.0 0.00 0.01 0.00 86 1017.6
20260507142122 58 54 4.0 11.0 0.00 0.01 0.00 86 1017.8
20260507141619 58 95 4.0 12.0 0.00 0.01 0.00 86 1017.9
20260507141119 58 19 4.0 12.0 0.00 0.01 0.00 86 1017.8
20260507140644 58 307 4.0 9.0 0.00 0.01 0.00 87 1017.7
20260507140635 58 43 4.0 8.0 0.00 0.01 0.00 86 1017.6
20260507135614 58 48 4.0 11.0 0.00 0.01 0.00 87 1017.5
20260507135104 59 3 4.0 11.0 0.00 0.01 0.00 87 1017.2
20260507134604 59 23 4.0 11.0 0.00 0.01 0.00 88 1017.2
20260507134104 59 31 4.0 11.0 0.00 0.01 0.00 88 1017.2
20260507133601 59 18 4.0 8.0 0.00 0.00 0.00 88 1017.3
20260507133101 59 11 4.0 8.0 0.00 0.00 0.00 89 1017.4
20260507132638 59 38 3.0 8.0 0.00 0.00 0.00 90 1017.4
20260507132625 59 34 4.0 8.0 0.00 0.00 0.00 89 1017.3
20260507131601 59 32 4.0 8.0 0.00 0.00 0.00 91 1017.5
20260507131100 58 13 3.0 8.0 0.00 0.00 0.00 91 1017.6
20260507130601 58 17 2.0 6.0 0.00 0.00 0.00 91 1017.6
20260507130344 58 252 3.0 8.0 0.00 0.00 0.00 92 1017.5
20260507125601 58 67 3.0 8.0 0.00 0.00 0.00 92 1017.2
20260507125100 58 227 3.0 11.0 0.00 0.00 0.00 92 1017.3
20260507124845 58 22 4.0 11.0 0.00 0.00 0.00 92 1017.4
20260507124100 58 39 4.0 11.0 0.00 0.00 0.00 92 1017.5
20260507123602 58 228 3.0 10.0 0.00 0.00 0.00 92 1017.4
20260507123344 58 18 2.0 8.0 0.00 0.00 0.00 93 1017.5
20260507122601 58 34 3.0 8.0 0.00 0.00 0.00 93 1017.3
20260507122101 58 45 3.0 8.0 0.00 0.00 0.00 93 1017.1
20260507121600 58 225 4.0 9.0 0.00 0.00 0.00 93 1016.8
20260507121100 58 25 4.0 9.0 0.00 0.00 0.00 93 1016.6
20260507120601 58 61 4.0 10.0 0.00 0.00 0.00 93 1016.5
20260507120101 58 28 4.0 10.0 0.00 0.00 0.00 93 1016.4
20260507115601 58 14 3.0 10.0 0.00 0.00 0.00 93 1016.4
20260507115100 58 215 3.0 8.0 0.00 0.00 0.00 93 1016.3
20260507114601 58 51 3.0 9.0 0.00 0.00 0.00 93 1016.4
20260507114101 58 101 4.0 9.0 0.00 0.00 0.00 93 1016.3
20260507113602 58 93 3.0 8.0 0.00 0.00 0.00 93 1016.3
20260507113101 58 332 3.0 10.0 0.00 0.00 0.00 93 1016.4
20260507112601 58 90 3.0 10.0 0.00 0.00 0.00 93 1016.6
20260507112101 58 73 3.0 9.0 0.00 0.00 0.00 93 1016.6
20260507111846 58 215 3.0 6.0 0.00 0.00 0.00 93 1016.4
20260507111100 58 234 3.0 7.0 0.00 0.00 0.00 93 1016.2
20260507110602 58 23 3.0 9.0 0.00 0.00 0.00 93 1016.3
20260507110345 58 38 3.0 9.0 0.00 0.00 0.00 93 1016.3
20260507105601 58 54 3.0 9.0 0.00 0.00 0.00 92 1016.5
20260507105131 58 46 3.0 7.0 0.00 0.00 0.00 92 1016.6
20260507105121 58 221 3.0 9.0 0.00 0.00 0.00 92 1016.6
20260507104101 58 231 3.0 10.0 0.00 0.00 0.00 92 1016.5
20260507103602 58 40 4.0 10.0 0.00 0.00 0.00 92 1015.5
20260507103101 58 352 3.0 9.0 0.00 0.00 0.00 92 1015.9
20260507102601 58 184 3.0 11.0 0.00 0.00 0.00 92 1016.1
20260507102348 58 25 4.0 11.0 0.00 0.00 0.00 92 1015.9
20260507101602 58 51 4.0 11.0 0.00 0.00 0.00 92 1016.1
20260507101101 58 49 4.0 11.0 0.00 0.00 0.00 91 1016.0
20260507100601 58 28 4.0 12.0 0.00 0.00 0.00 91 1015.9
20260507100101 58 23 4.0 12.0 0.00 0.00 0.00 91 1016.1
20260507095601 58 27 4.0 10.0 0.00 0.00 0.00 91 1016.2
20260507095100 58 37 4.0 10.0 0.00 0.00 0.00 91 1016.4
20260507094601 58 31 4.0 10.0 0.00 0.00 0.00 91 1016.3
20260507094101 58 32 4.0 6.0 0.00 0.00 0.00 91 1016.0
20260507093602 58 39 4.0 6.0 0.00 0.00 0.00 91 1015.9
20260507093102 58 42 4.0 8.0 0.00 0.00 0.00 90 1015.9
20260507092601 58 33 4.0 8.0 0.00 0.00 0.00 90 1016.0
20260507092341 58 50 3.0 7.0 0.00 0.00 0.00 90 1016.1
20260507091602 58 283 3.0 7.0 0.00 0.00 0.00 90 1016.0
20260507091102 58 227 3.0 6.0 0.00 0.00 0.00 90 1015.6
20260507090602 58 25 3.0 9.0 0.00 0.00 0.00 90 1015.5
20260507085601 58 46 5.0 12.0 0.00 0.00 0.00 90 1015.3
20260507085348 59 22 4.0 12.0 0.00 0.00 0.00 90 1015.0
20260507084601 59 30 4.0 13.0 0.00 0.00 0.00 90 1015.2
20260507084101 59 33 5.0 13.0 0.00 0.00 0.00 90 1015.4
20260507083846 59 38 4.0 11.0 0.00 0.00 0.00 89 1015.0
20260507083102 59 32 2.0 11.0 0.00 0.00 0.00 89 1015.0
20260507082844 59 244 2.0 11.0 0.00 0.00 0.00 90 1014.7
20260507082102 59 306 2.0 6.0 0.00 0.00 0.00 90 1015.3
20260507081605 59 286 3.0 7.0 0.00 0.00 0.00 90 1015.0
20260507081102 59 23 3.0 9.0 0.00 0.00 0.00 90 1015.2
20260507080601 59 298 3.0 9.0 0.00 0.00 0.00 90 1015.0
20260507080348 59 315 4.0 9.0 0.00 0.00 0.00 89 1014.4
20260507075603 59 305 4.0 9.0 0.00 0.00 0.00 89 1014.5
20260507075102 59 335 5.0 9.0 0.00 0.00 0.00 89 1014.6
20260507074602 59 327 4.0 8.0 0.00 0.00 0.00 89 1014.8
20260507074101 59 358 4.0 8.0 0.00 0.00 0.00 89 1014.7
20260507073842 59 348 4.0 8.0 0.00 0.00 0.00 89 1014.7
20260507073102 59 338 4.0 8.0 0.00 0.00 0.00 88 1014.3
20260507072602 59 22 4.0 8.0 0.00 0.00 0.00 88 1014.6
20260507072102 59 26 5.0 9.0 0.00 0.00 0.00 88 1014.7
20260507071602 59 325 5.0 9.0 0.00 0.00 0.00 88 1014.9
20260507071102 60 42 4.0 7.0 0.00 0.00 0.00 87 1014.8
20260507070840 60 35 5.0 9.0 0.00 0.00 0.00 87 1014.7
20260507065603 60 14 6.0 10.0 0.00 0.00 0.00 87 1014.6
20260507065340 60 33 5.0 9.0 0.00 0.00 0.00 87 1014.4
20260507064843 60 357 5.0 9.0 0.00 0.00 0.00 86 1014.1
20260507064101 60 295 5.0 8.0 0.00 0.00 0.00 86 1014.4
20260507063601 60 34 4.0 8.0 0.00 0.00 0.00 85 1014.6
20260507063103 60 25 4.0 7.0 0.00 0.00 0.00 85 1014.7
20260507062601 60 46 5.0 8.0 0.00 0.00 0.00 85 1014.6
20260507062101 60 39 5.0 8.0 0.00 0.00 0.00 85 1014.4
20260507061600 60 31 5.0 8.0 0.00 0.00 0.00 85 1014.4
20260507061100 60 36 5.0 8.0 0.00 0.00 0.00 85 1014.7
20260507060602 60 32 5.0 8.0 0.00 0.00 0.00 85 1015.2
20260507055601 60 40 5.0 7.0 0.00 0.00 0.00 85 1014.7
20260507055101 60 31 5.0 7.0 0.00 0.00 0.00 85 1014.5
20260507054601 60 24 5.0 7.0 0.00 0.00 0.00 85 1014.5
20260507054100 61 14 4.0 7.0 0.00 0.00 0.00 85 1014.4
20260507053846 61 31 4.0 10.0 0.00 0.00 0.00 85 1014.4
20260507053102 61 11 4.0 10.0 0.00 0.00 0.00 84 1014.4
20260507052601 61 259 5.0 11.0 0.00 0.00 0.00 84 1014.5
20260507052101 61 20 5.0 11.0 0.00 0.00 0.00 84 1014.3
20260507051559 61 287 4.0 10.0 0.00 0.00 0.00 84 1014.3
20260507051058 61 59 4.0 10.0 0.00 0.00 0.00 84 1014.7
20260507050838 61 322 4.0 10.0 0.00 0.00 0.00 84 1014.8
20260507050052 61 26 5.0 11.0 0.00 0.00 0.00 84 1014.5
20260507045552 61 40 4.0 11.0 0.00 0.00 0.00 84 1014.4
20260507045342 61 54 4.0 8.0 0.00 0.00 0.00 84 1014.7
20260507044553 61 58 4.0 9.0 0.00 0.00 0.00 84 1014.8
20260507044053 61 291 5.0 11.0 0.00 0.00 0.00 84 1014.5
20260507043555 61 21 5.0 11.0 0.00 0.00 0.00 84 1014.6
20260507043052 61 29 6.0 11.0 0.00 0.00 0.00 84 1014.9
20260507042552 61 333 4.0 9.0 0.00 0.00 0.00 84 1014.7
20260507042053 62 30 4.0 10.0 0.00 0.00 0.00 84 1014.7
20260507041553 62 12 4.0 10.0 0.00 0.00 0.00 84 1014.7
20260507041053 62 24 4.0 10.0 0.00 0.00 0.00 84 1014.6
20260507040553 62 25 5.0 9.0 0.00 0.00 0.00 84 1014.7
20260507040054 62 225 6.0 9.0 0.00 0.00 0.00 84 1015.0
20260507035553 62 40 5.0 10.0 0.00 0.00 0.00 84 1014.8
20260507035053 62 26 4.0 13.0 0.00 0.00 0.00 84 1014.6
20260507034553 62 197 5.0 13.0 0.00 0.00 0.00 84 1014.6
20260507034053 62 37 4.0 12.0 0.00 0.00 0.00 84 1014.4
20260507033548 62 26 4.0 9.0 0.00 0.00 0.00 84 1014.5
20260507033332 62 35 3.0 9.0 0.00 0.00 0.00 84 1014.6
20260507032542 62 50 3.0 7.0 0.00 0.00 0.00 85 1014.5
20260507032042 62 45 4.0 10.0 0.00 0.00 0.00 85 1014.5
20260507031535 62 33 4.0 10.0 0.00 0.00 0.00 85 1014.4
20260507031103 62 308 4.0 8.0 0.00 0.00 0.00 85 1014.1
20260507031056 62 92 4.0 10.0 0.00 0.00 0.00 85 1014.4
20260507030031 62 48 3.0 7.0 0.00 0.00 0.00 85 1014.1
20260507025530 62 44 3.0 7.0 0.00 0.00 0.00 85 1014.1
20260507025030 62 34 4.0 7.0 0.00 0.00 0.00 85 1014.4
20260507024531 62 314 4.0 7.0 0.00 0.00 0.00 85 1014.4
20260507024030 62 10 4.0 9.0 0.00 0.00 0.00 85 1014.1
20260507023530 62 34 4.0 9.0 0.00 0.00 0.00 84 1014.1
20260507023030 62 31 4.0 8.0 0.00 0.00 0.00 84 1013.9
20260507022814 62 22 5.0 9.0 0.00 0.00 0.00 84 1013.8
20260507022034 62 46 4.0 9.0 0.00 0.00 0.00 84 1013.6
20260507021809 62 49 4.0 9.0 0.00 0.00 0.00 84 1013.6
20260507021030 62 66 4.0 9.0 0.00 0.00 0.00 84 1013.8
20260507020530 62 2 4.0 7.0 0.00 0.00 0.00 84 1013.6
20260507020025 62 37 4.0 9.0 0.00 0.00 0.00 84 1013.7
20260507015555 62 63 3.0 7.0 0.00 0.00 0.00 84 1013.3
20260507015545 62 9 3.0 9.0 0.00 0.00 0.00 84 1013.5
20260507014528 62 48 3.0 8.0 0.00 0.00 0.00 84 1013.1
20260507014522 62 218 3.0 12.0 0.00 0.00 0.00 84 1013.1
20260507013525 62 219 3.0 12.0 0.00 0.00 0.00 84 1012.9